#�ϑ�����,���ϕ���,���ϕ���,�ő啗��,�ő啗����������,�ő�u�ԕ���,�ő�u�ԕ�����������
#(�N����),(m/s)   ,(16����),(m/s)   ,(16����)        ,(m/s)       ,(16����)            
2013/9/16 0:01,3.3,2,3.3,1,11.1,15
2013/9/16 0:02,3.5,1,3.5,1,10.6,16
2013/9/16 0:03,3.7,1,3.7,2,9.5,1
2013/9/16 0:04,4,16,4,2,10.8,16
2013/9/16 0:05,4.2,1,4.2,1,8.7,1
2013/9/16 0:06,4.4,1,4.4,16,10.3,16
2013/9/16 0:07,4.8,1,4.8,1,12.1,2
2013/9/16 0:08,5.3,1,5.4,1,15,2
2013/9/16 0:09,5.6,1,5.6,1,14.1,2
2013/9/16 0:10,5.4,1,5.7,1,11.4,3
2013/9/16 0:11,5.3,1,5.5,1,9,3
2013/9/16 0:12,5.3,1,5.3,1,10.9,2
2013/9/16 0:13,5.2,1,5.3,1,9.8,16
2013/9/16 0:14,5.4,1,5.4,1,13.6,1
2013/9/16 0:15,5.7,1,5.7,1,13.2,16
2013/9/16 0:16,5.6,1,5.7,1,10.7,15
2013/9/16 0:17,5.5,1,5.6,1,11,1
2013/9/16 0:18,5.2,1,5.5,1,9,1
2013/9/16 0:19,5.2,1,5.4,1,13.6,15
2013/9/16 0:20,5.4,1,5.5,1,13.9,16
2013/9/16 0:21,5.3,1,5.4,1,7.9,2
2013/9/16 0:22,5.3,1,5.4,1,11.7,1
2013/9/16 0:23,5.3,1,5.4,1,9,3
2013/9/16 0:24,4.9,1,5.3,1,8.1,2
2013/9/16 0:25,4.7,1,4.9,1,9.2,3
2013/9/16 0:26,4.7,1,4.7,1,7.5,15
2013/9/16 0:27,4.8,1,4.9,1,13.5,1
2013/9/16 0:28,5.1,1,5.1,1,11.5,2
2013/9/16 0:29,5.1,1,5.1,1,11.4,15
2013/9/16 0:30,4.9,1,5,1,9.2,2
2013/9/16 0:31,5.1,1,5.1,1,15.4,1
2013/9/16 0:32,4.9,1,5,1,9.9,2
2013/9/16 0:33,4.8,1,5,1,12.1,1
2013/9/16 0:34,5.1,1,5.1,1,10.2,1
2013/9/16 0:35,5.1,1,5.2,1,9.2,4
2013/9/16 0:36,5.1,1,5.1,1,10,1
2013/9/16 0:37,4.7,1,5.1,1,4.7,1
2013/9/16 0:38,4.4,1,4.7,1,7.5,16
2013/9/16 0:39,4.4,1,4.4,1,10.1,2
2013/9/16 0:40,5,1,5,1,15.9,2
2013/9/16 0:41,5.1,1,5.3,1,16.6,1
2013/9/16 0:42,5.2,1,5.2,1,8.6,2
2013/9/16 0:43,5.3,1,5.3,1,9.4,1
2013/9/16 0:44,5.4,1,5.4,1,14.1,2
2013/9/16 0:45,5.5,1,5.5,1,9.2,1
2013/9/16 0:46,5.7,1,5.7,1,13.3,2
2013/9/16 0:47,6,1,6,1,14,1
2013/9/16 0:48,6.2,1,6.2,1,13,1
2013/9/16 0:49,6.4,1,6.4,1,12.6,2
2013/9/16 0:50,6.2,1,6.5,1,15.8,15
2013/9/16 0:51,6,1,6.2,1,10.2,16
2013/9/16 0:52,5.8,1,6,1,8.2,16
2013/9/16 0:53,5.7,1,5.8,1,6.9,1
2013/9/16 0:54,5.5,1,5.7,1,9,2
2013/9/16 0:55,5.3,1,5.5,1,12.1,4
2013/9/16 0:56,5,1,5.4,1,6.8,15
2013/9/16 0:57,5,1,5.1,1,9.1,1
2013/9/16 0:58,5.2,1,5.3,1,17.1,14
2013/9/16 0:59,5.4,1,5.4,1,15,16
2013/9/16 1:00,5.4,1,5.4,1,17.2,1
2013/9/16 1:01,5.8,1,5.8,1,15.3,1
2013/9/16 1:02,6.1,1,6.1,1,15,16
2013/9/16 1:03,6.6,1,6.6,1,16.9,1
2013/9/16 1:04,7.2,1,7.2,1,27.1,16
2013/9/16 1:05,7.7,16,7.7,16,27.7,16
2013/9/16 1:06,8.1,16,8.1,16,16.9,15
2013/9/16 1:07,8.2,16,8.3,16,11.6,1
2013/9/16 1:08,8.2,16,8.2,16,17.9,1
2013/9/16 1:09,8.7,16,8.8,16,25.9,16
2013/9/16 1:10,9.1,16,9.1,16,21,16
2013/9/16 1:11,9,16,9.1,16,16.5,1
2013/9/16 1:12,9.3,1,9.3,1,18.5,2
2013/9/16 1:13,9.3,1,9.5,1,13.8,16
2013/9/16 1:14,9.3,1,9.5,1,16.7,16
2013/9/16 1:15,9.2,1,9.2,1,14.3,2
2013/9/16 1:16,9.4,1,9.4,1,18,1
2013/9/16 1:17,9.6,1,9.6,1,17.5,1
2013/9/16 1:18,9.8,1,9.9,1,20.3,1
2013/9/16 1:19,9.1,1,9.8,1,13.5,16
2013/9/16 1:20,8.8,1,9.2,1,17.6,2
2013/9/16 1:21,8.8,1,9,1,16.1,1
2013/9/16 1:22,9,16,9,1,20.6,16
2013/9/16 1:23,9.2,16,9.2,1,19.9,15
2013/9/16 1:24,8.8,16,9.1,1,15.9,16
2013/9/16 1:25,8.9,16,9,1,17.8,16
2013/9/16 1:26,8.5,16,8.9,1,10.5,2
2013/9/16 1:27,8.4,16,8.4,1,18,16
2013/9/16 1:28,8.7,16,8.7,1,23,1
2013/9/16 1:29,9.2,16,9.2,1,22.1,16
2013/9/16 1:30,9.4,16,9.4,16,19.3,16
2013/9/16 1:31,9.6,16,9.6,16,20.9,16
2013/9/16 1:32,9.7,16,9.8,16,24.9,16
2013/9/16 1:33,9.8,16,9.9,16,22.6,16
2013/9/16 1:34,10.3,16,10.3,16,23.1,16
2013/9/16 1:35,11,16,11,16,26.9,1
2013/9/16 1:36,11.9,16,11.9,16,27.7,1
2013/9/16 1:37,12.3,16,12.3,16,19.8,16
2013/9/16 1:38,12.3,16,12.5,16,25.5,15
2013/9/16 1:39,12.8,16,12.8,16,27.7,16
2013/9/16 1:40,13.3,16,13.3,16,28.5,16
2013/9/16 1:41,13.4,16,13.6,16,26.3,16
2013/9/16 1:42,13.5,16,13.6,16,26.5,16
2013/9/16 1:43,13.7,16,13.8,16,21,16
2013/9/16 1:44,13.9,16,13.9,16,20.9,2
2013/9/16 1:45,13.7,16,14.1,16,31,15
2013/9/16 1:46,13.7,16,13.7,16,22.8,16
2013/9/16 1:47,14.1,16,14.2,16,24.5,15
2013/9/16 1:48,14.3,16,14.3,16,27.5,16
2013/9/16 1:49,14.3,16,14.4,16,26.4,16
2013/9/16 1:50,14.1,16,14.4,16,20.6,16
2013/9/16 1:51,13.9,16,14.1,16,23.2,15
2013/9/16 1:52,14.4,16,14.4,16,29.8,14
2013/9/16 1:53,14.3,16,14.4,16,21.3,16
2013/9/16 1:54,14.2,16,14.3,16,24,16
2013/9/16 1:55,14.3,16,14.4,16,27.6,16
2013/9/16 1:56,14.4,16,14.5,16,30.1,16
2013/9/16 1:57,14.1,16,14.4,16,20.6,1
2013/9/16 1:58,13.7,16,14.1,16,19,14
2013/9/16 1:59,13.4,16,13.8,16,24.4,1
2013/9/16 2:00,13.4,16,13.5,16,25.3,1
2013/9/16 2:01,13.8,16,13.8,16,21.8,16
2013/9/16 2:02,13.4,16,13.8,16,24.8,15
2013/9/16 2:03,13.9,16,13.9,16,26,1
2013/9/16 2:04,14,16,14,16,23.9,1
2013/9/16 2:05,13.6,16,14.1,16,24.8,16
2013/9/16 2:06,13.3,16,13.6,16,21.9,15
2013/9/16 2:07,13.2,16,13.4,16,23,15
2013/9/16 2:08,13.4,16,13.4,16,25.4,16
2013/9/16 2:09,13.4,16,13.4,16,24.7,16
2013/9/16 2:10,13.8,16,13.8,16,31.6,16
2013/9/16 2:11,14.3,16,14.3,16,26.5,15
2013/9/16 2:12,14.8,16,14.8,16,32,16
2013/9/16 2:13,14.6,16,14.8,16,27,1
2013/9/16 2:14,14.4,16,14.6,16,25.3,16
2013/9/16 2:15,14.5,16,14.5,16,26.9,16
2013/9/16 2:16,14.6,16,14.7,16,29.4,16
2013/9/16 2:17,14.6,16,14.6,16,20.6,16
2013/9/16 2:18,14.8,16,14.9,16,23.5,1
2013/9/16 2:19,14.7,16,14.8,16,25.4,16
2013/9/16 2:20,14.9,16,14.9,16,34.6,16
2013/9/16 2:21,15,16,15,16,28.8,16
2013/9/16 2:22,14.6,16,15.1,16,24.6,16
2013/9/16 2:23,14.3,16,14.7,16,24.8,15
2013/9/16 2:24,14.5,16,14.6,16,24.4,16
2013/9/16 2:25,14.7,16,14.7,16,29.9,15
2013/9/16 2:26,14.8,16,14.8,16,27.9,1
2013/9/16 2:27,15.5,16,15.5,16,28.3,16
2013/9/16 2:28,15.5,16,15.6,16,21.8,16
2013/9/16 2:29,16.1,16,16.1,16,31.2,16
2013/9/16 2:30,15.5,16,16.1,16,26.3,1
2013/9/16 2:31,15.1,16,15.5,16,26.7,16
2013/9/16 2:32,15,16,15,16,25.9,16
2013/9/16 2:33,15.1,16,15.1,16,24.4,15
2013/9/16 2:34,15.2,16,15.3,16,30.1,16
2013/9/16 2:35,15.1,16,15.4,16,29,15
2013/9/16 2:36,14.7,16,15.2,16,26.1,1
2013/9/16 2:37,15,16,15,16,30.5,16
2013/9/16 2:38,15.6,16,15.6,16,32.4,1
2013/9/16 2:39,15.1,16,15.7,16,31.7,15
2013/9/16 2:40,15.1,16,15.1,16,22.1,1
2013/9/16 2:41,15.2,16,15.5,16,29.5,15
2013/9/16 2:42,15.2,16,15.3,16,26.4,16
2013/9/16 2:43,15.2,16,15.2,16,24.9,16
2013/9/16 2:44,14.9,16,15.2,16,27.2,16
2013/9/16 2:45,15.1,16,15.1,16,28.1,16
2013/9/16 2:46,15.3,16,15.5,16,23.5,16
2013/9/16 2:47,14.6,16,15.3,16,26.2,1
2013/9/16 2:48,14,16,14.6,16,27.5,16
2013/9/16 2:49,14.2,16,14.2,16,30.6,1
2013/9/16 2:50,14.7,16,14.7,16,30.6,1
2013/9/16 2:51,14.5,16,14.7,16,20.7,16
2013/9/16 2:52,14.1,16,14.5,16,18,16
2013/9/16 2:53,13.9,16,14,16,21.3,16
2013/9/16 2:54,14.1,16,14.1,16,26.1,16
2013/9/16 2:55,13.8,16,14.3,16,21.2,1
2013/9/16 2:56,13.7,16,13.8,16,24.4,16
2013/9/16 2:57,13.7,16,13.8,16,19.5,16
2013/9/16 2:58,13.8,16,13.8,16,29.9,1
2013/9/16 2:59,13.9,16,14.2,16,26.1,16
2013/9/16 3:00,13,16,13.8,16,18.1,16
2013/9/16 3:01,12.6,16,13.1,16,19.5,16
2013/9/16 3:02,12.9,16,12.9,16,22.9,16
2013/9/16 3:03,12.7,16,13.1,16,18,1
2013/9/16 3:04,12.2,16,12.6,16,19.9,16
2013/9/16 3:05,12.1,16,12.3,16,22.6,2
2013/9/16 3:06,12.1,16,12.3,16,18.4,16
2013/9/16 3:07,12.5,16,12.5,16,25.6,1
2013/9/16 3:08,12.5,16,12.8,16,27,16
2013/9/16 3:09,12.4,16,12.6,16,27,16
2013/9/16 3:10,12.7,16,12.7,16,22.7,2
2013/9/16 3:11,12.6,16,12.6,16,19.5,16
2013/9/16 3:12,13.1,16,13.1,16,26,16
2013/9/16 3:13,13.9,16,13.9,16,28.3,1
2013/9/16 3:14,13.6,16,13.9,16,23.6,15
2013/9/16 3:15,13.4,16,13.5,16,16.9,16
2013/9/16 3:16,13.2,16,13.5,16,19,1
2013/9/16 3:17,13,16,13.3,16,19.5,16
2013/9/16 3:18,12.9,16,12.9,16,24.6,15
2013/9/16 3:19,12.2,16,13,16,23.2,1
2013/9/16 3:20,12.1,16,12.2,16,26.3,16
2013/9/16 3:21,12.4,16,12.5,16,27.9,15
2013/9/16 3:22,12.4,16,12.6,16,34.2,16
2013/9/16 3:23,12,16,12.1,16,24.1,16
2013/9/16 3:24,12.3,16,12.4,16,21.3,1
2013/9/16 3:25,12.6,16,12.6,16,22.4,1
2013/9/16 3:26,12.8,16,12.8,16,26.4,1
2013/9/16 3:27,12.7,16,12.9,16,23.2,1
2013/9/16 3:28,13,16,13,16,33.9,1
2013/9/16 3:29,13.1,16,13.1,16,23.6,15
2013/9/16 3:30,13.5,16,13.5,16,28.7,16
2013/9/16 3:31,13.6,16,13.8,16,22.1,16
2013/9/16 3:32,13.6,16,13.7,16,25.6,1
2013/9/16 3:33,13.6,16,13.6,16,26.5,1
2013/9/16 3:34,13.8,16,13.8,16,25.3,16
2013/9/16 3:35,13.7,16,13.9,16,17.8,16
2013/9/16 3:36,14,16,14.1,16,29,16
2013/9/16 3:37,14.5,16,14.5,16,28.7,15
2013/9/16 3:38,14.2,16,14.4,16,26.3,2
2013/9/16 3:39,14.5,16,14.5,16,27.5,1
2013/9/16 3:40,14.5,16,14.8,16,28.1,16
2013/9/16 3:41,14.7,16,14.7,16,26.4,16
2013/9/16 3:42,14.5,16,14.7,16,22.6,16
2013/9/16 3:43,14.7,16,14.9,16,33.6,16
2013/9/16 3:44,14.6,16,15,16,22.4,16
2013/9/16 3:45,14.7,16,14.9,16,23.6,1
2013/9/16 3:46,14.5,16,14.6,16,27.7,2
2013/9/16 3:47,13.9,1,14.5,16,19.9,2
2013/9/16 3:48,14.2,1,14.3,16,25.5,1
2013/9/16 3:49,14,1,14.2,16,21.8,16
2013/9/16 3:50,13.8,1,14.1,16,26.8,16
2013/9/16 3:51,14.1,1,14.1,16,26.9,1
2013/9/16 3:52,13.9,1,14.1,16,24.5,16
2013/9/16 3:53,13.7,1,13.8,16,28.1,1
2013/9/16 3:54,13.5,1,13.7,16,27.5,1
2013/9/16 3:55,13.6,1,13.6,1,22.8,16
2013/9/16 3:56,13.6,1,13.8,16,19,2
2013/9/16 3:57,13.5,1,13.5,1,22.8,1
2013/9/16 3:58,13.3,1,13.4,1,23,16
2013/9/16 3:59,13.9,1,13.9,1,40.2,16
2013/9/16 4:00,14,1,14.3,1,29.5,1
2013/9/16 4:01,13.8,1,14,1,24.7,1
2013/9/16 4:02,13.9,1,14.2,1,24.3,1
2013/9/16 4:03,14.2,1,14.3,1,30.8,16
2013/9/16 4:04,14.3,1,14.3,1,21.4,16
2013/9/16 4:05,14.4,1,14.6,1,24.3,1
2013/9/16 4:06,14.3,1,14.5,1,20.1,2
2013/9/16 4:07,14.5,1,14.6,1,23.8,1
2013/9/16 4:08,14.6,1,14.7,1,29.1,2
2013/9/16 4:09,13.9,1,14.5,1,19.9,1
2013/9/16 4:10,13.2,1,13.8,1,17.9,16
2013/9/16 4:11,12.5,1,13.1,1,17.9,1
2013/9/16 4:12,12.3,16,12.4,1,20.2,1
2013/9/16 4:13,12,16,12.5,1,24.1,2
2013/9/16 4:14,11.9,16,12,1,30,16
2013/9/16 4:15,11.8,16,12.1,1,24.1,15
2013/9/16 4:16,11.7,16,11.9,1,20.2,1
2013/9/16 4:17,11.3,16,11.7,1,19.3,1
2013/9/16 4:18,11,16,11.4,1,21.1,15
2013/9/16 4:19,11.6,16,11.6,1,29.9,16
2013/9/16 4:20,11.8,16,11.8,1,27.6,1
2013/9/16 4:21,12.4,16,12.5,16,30.2,1
2013/9/16 4:22,12.3,16,12.5,16,18.7,15
2013/9/16 4:23,12.3,16,12.4,16,22.1,1
2013/9/16 4:24,12.4,16,12.7,16,21.2,16
2013/9/16 4:25,12.3,16,12.3,16,20.2,16
2013/9/16 4:26,13.3,16,13.3,16,31.6,16
2013/9/16 4:27,13.9,16,13.9,16,24.8,2
2013/9/16 4:28,14.2,16,14.2,16,26.8,1
2013/9/16 4:29,13.7,16,14.3,16,23.1,2
2013/9/16 4:30,13.7,16,13.8,16,21,16
2013/9/16 4:31,13.5,16,13.6,16,21.4,1
2013/9/16 4:32,14,1,14,16,25.4,16
2013/9/16 4:33,14.1,1,14.1,16,25.2,1
2013/9/16 4:34,14.9,1,14.9,1,33,16
2013/9/16 4:35,15.2,1,15.2,1,32.3,16
2013/9/16 4:36,14.3,1,15.1,1,23.3,16
2013/9/16 4:37,14.4,1,14.5,1,26.3,16
2013/9/16 4:38,14.6,1,14.6,1,23.8,15
2013/9/16 4:39,14.6,1,14.7,1,25.1,16
2013/9/16 4:40,14.9,1,15.1,1,25.3,16
2013/9/16 4:41,15.3,1,15.3,1,23.9,1
2013/9/16 4:42,15.8,1,15.8,1,32.7,16
2013/9/16 4:43,15.8,1,15.9,1,22,1
2013/9/16 4:44,15.3,1,15.7,1,23.6,16
2013/9/16 4:45,14.9,1,15.3,1,23.1,16
2013/9/16 4:46,15.4,1,15.5,1,39.9,16
2013/9/16 4:47,15.7,1,15.9,1,31.4,1
2013/9/16 4:48,15.1,1,15.6,1,18.3,1
2013/9/16 4:49,14.4,1,15.1,1,19.9,16
2013/9/16 4:50,14.8,16,14.8,1,36.9,16
2013/9/16 4:51,15,16,15,1,28.4,16
2013/9/16 4:52,14,16,14.9,1,27.7,16
2013/9/16 4:53,14.3,16,14.3,1,30.3,14
2013/9/16 4:54,13.8,16,14.3,1,32.5,1
2013/9/16 4:55,13.9,16,14,1,24.6,1
2013/9/16 4:56,13.6,16,13.9,1,27.2,16
2013/9/16 4:57,13.2,16,13.5,1,25.7,1
2013/9/16 4:58,13.1,16,13.1,1,24.6,3
2013/9/16 4:59,13.9,16,13.9,16,26.2,16
2013/9/16 5:00,13.3,16,13.8,16,20.2,1
2013/9/16 5:01,12.5,16,13.2,16,17.9,1
2013/9/16 5:02,12.6,16,12.6,16,18,1
2013/9/16 5:03,11.9,16,12.5,16,16.3,15
2013/9/16 5:04,11.5,16,11.8,16,20.5,15
2013/9/16 5:05,11,16,11.5,16,14.1,16
2013/9/16 5:06,10.3,16,10.9,16,17.4,2
2013/9/16 5:07,9.9,16,10.2,16,16.3,16
2013/9/16 5:08,9.7,16,10,16,17.1,16
2013/9/16 5:09,9.3,16,9.7,16,14.5,15
2013/9/16 5:10,9.2,16,9.2,16,21,1
2013/9/16 5:11,9.1,16,9.3,16,17.7,1
2013/9/16 5:12,8.8,16,9,16,15.9,16
2013/9/16 5:13,8.6,16,8.9,16,18.3,16
2013/9/16 5:14,8.7,16,8.8,16,17,16
2013/9/16 5:15,8.7,16,8.7,16,14.8,15
2013/9/16 5:16,8.9,16,9,16,19.5,15
2013/9/16 5:17,9.4,16,9.4,16,22.8,16
2013/9/16 5:18,9,16,9.3,16,15.9,2
2013/9/16 5:19,9.4,16,9.5,16,22.8,1
2013/9/16 5:20,9,16,9.4,16,12.8,16
2013/9/16 5:21,9,16,9.1,16,14.5,16
2013/9/16 5:22,9,16,9.1,16,13.4,15
2013/9/16 5:23,8.8,16,9,16,12.8,16
2013/9/16 5:24,8.8,16,9,16,13.8,16
2013/9/16 5:25,8.7,16,9,16,14.3,16
2013/9/16 5:26,8.6,16,8.8,16,19.8,15
2013/9/16 5:27,8.2,16,8.8,16,18.4,16
2013/9/16 5:28,8.5,16,8.5,16,16.3,1
2013/9/16 5:29,8.5,16,8.5,16,20.4,2
2013/9/16 5:30,8.7,16,8.7,16,15,16
2013/9/16 5:31,8.7,16,8.7,16,16.1,16
2013/9/16 5:32,8.7,16,8.7,16,12.3,15
2013/9/16 5:33,8.8,16,8.8,16,14.7,15
2013/9/16 5:34,8.8,16,8.9,16,16.3,16
2013/9/16 5:35,9.2,16,9.2,16,15.1,16
2013/9/16 5:36,9,16,9.1,16,14.5,2
2013/9/16 5:37,9.1,16,9.1,16,19.5,15
2013/9/16 5:38,8.7,16,9,16,14.9,15
2013/9/16 5:39,8.3,16,8.7,16,15.9,15
2013/9/16 5:40,8.1,16,8.3,16,12.2,16
2013/9/16 5:41,7.6,16,8.1,16,11,16
2013/9/16 5:42,7.7,16,7.8,16,15.3,1
2013/9/16 5:43,8,16,8,16,24,16
2013/9/16 5:44,8.1,16,8.1,16,18.6,1
2013/9/16 5:45,8.1,16,8.3,16,18.4,16
2013/9/16 5:46,8.3,16,8.3,16,23.2,16
2013/9/16 5:47,8.3,16,8.5,16,21,16
2013/9/16 5:48,8.7,16,8.7,16,17.2,16
2013/9/16 5:49,8.6,16,8.8,16,16,13
2013/9/16 5:50,8.9,16,8.9,16,16.8,1
2013/9/16 5:51,9.3,16,9.3,16,24.7,15
2013/9/16 5:52,9.7,16,9.8,16,26,16
2013/9/16 5:53,9.8,16,10.1,16,20.6,16
2013/9/16 5:54,9.5,16,9.8,16,17.4,16
2013/9/16 5:55,9.4,16,9.4,16,19.5,15
2013/9/16 5:56,9.5,16,9.6,16,17.5,15
2013/9/16 5:57,9.7,16,9.7,16,21.6,16
2013/9/16 5:58,9.9,16,10.1,16,24.1,16
2013/9/16 5:59,9.8,16,10,16,15.4,16
2013/9/16 6:00,9.9,16,10,16,18.3,16
2013/9/16 6:01,9.7,16,10.1,16,17,15
2013/9/16 6:02,9.6,16,9.7,16,22.3,15
2013/9/16 6:03,9.6,16,9.6,16,20.9,16
2013/9/16 6:04,9.7,16,9.7,16,18.5,15
2013/9/16 6:05,9.9,16,10,16,19.8,16
2013/9/16 6:06,10.1,16,10.1,16,23.5,1
2013/9/16 6:07,10.2,16,10.3,16,23.9,15
2013/9/16 6:08,9.8,16,10.2,16,25.6,15
2013/9/16 6:09,10.2,16,10.2,16,21.1,15
2013/9/16 6:10,10.4,15,10.4,15,17.6,16
2013/9/16 6:11,10.7,15,10.8,15,18.4,15
2013/9/16 6:12,10.7,15,10.7,15,25.5,15
2013/9/16 6:13,11.2,15,11.2,15,26.1,16
2013/9/16 6:14,11.1,15,11.2,15,18.1,15
2013/9/16 6:15,10.9,15,11.1,15,15.6,15
2013/9/16 6:16,10.6,15,10.9,15,16,15
2013/9/16 6:17,11,15,11,15,29.3,16
2013/9/16 6:18,11.5,15,11.5,15,32.3,15
2013/9/16 6:19,11.8,15,11.8,15,21.1,16
2013/9/16 6:20,11.9,15,12,15,23.1,16
2013/9/16 6:21,11.9,15,11.9,15,20.6,15
2013/9/16 6:22,11.8,15,12,15,20.7,15
2013/9/16 6:23,11.4,15,11.8,15,19.7,16
2013/9/16 6:24,11.6,16,11.6,15,20.7,15
2013/9/16 6:25,12,16,12,15,18.7,16
2013/9/16 6:26,11.9,16,12,15,16.6,2
2013/9/16 6:27,11.1,16,11.9,15,13.1,1
2013/9/16 6:28,10.7,16,10.9,15,20.7,15
2013/9/16 6:29,10.6,16,10.6,15,28.3,16
2013/9/16 6:30,10.5,16,10.5,15,28.7,16
2013/9/16 6:31,10.6,16,10.9,15,21.8,14
2013/9/16 6:32,10.6,16,10.7,16,21.1,15
2013/9/16 6:33,10.4,16,10.6,16,17.1,16
2013/9/16 6:34,10.5,16,10.5,16,20.3,1
2013/9/16 6:35,10.4,16,10.5,16,20.9,15
2013/9/16 6:36,10.6,16,10.6,16,17.8,16
2013/9/16 6:37,11.5,16,11.5,16,28.6,15
2013/9/16 6:38,11.7,16,11.8,16,20.6,16
2013/9/16 6:39,11.7,16,11.8,16,18.6,15
2013/9/16 6:40,11.5,16,11.8,16,18.3,15
2013/9/16 6:41,11.5,15,11.5,16,23.7,15
2013/9/16 6:42,11.9,16,12,16,25.9,16
2013/9/16 6:43,12.4,16,12.4,16,25.1,15
2013/9/16 6:44,12.1,16,12.4,16,16.7,15
2013/9/16 6:45,12,15,12.1,16,23.1,14
2013/9/16 6:46,12.4,15,12.5,15,24.6,15
2013/9/16 6:47,12.1,15,12.5,15,19.6,16
2013/9/16 6:48,12.1,15,12.3,15,21,16
2013/9/16 6:49,12.1,15,12.2,15,17.2,16
2013/9/16 6:50,12.2,16,12.3,15,23.5,15
2013/9/16 6:51,12.1,16,12.2,15,14.7,16
2013/9/16 6:52,11.7,16,11.9,15,20.4,15
2013/9/16 6:53,11.4,16,11.7,15,28.4,16
2013/9/16 6:54,11.8,16,11.8,15,19.4,15
2013/9/16 6:55,11.9,16,12.1,15,19.7,15
2013/9/16 6:56,11.5,16,11.9,15,24.5,16
2013/9/16 6:57,11.4,16,11.6,15,23.6,1
2013/9/16 6:58,11.4,16,11.4,15,21.4,16
2013/9/16 6:59,11.5,16,11.5,15,22.4,16
2013/9/16 7:00,11.8,16,11.8,16,21.5,14
2013/9/16 7:01,12.2,16,12.2,16,22,16
2013/9/16 7:02,12.6,16,12.6,16,25.7,16
2013/9/16 7:03,12.7,16,12.8,16,28.5,16
2013/9/16 7:04,12.6,16,12.8,16,17.7,16
2013/9/16 7:05,12.5,16,12.5,16,17.9,16
2013/9/16 7:06,11.9,16,12.5,16,14.8,14
2013/9/16 7:07,11.8,16,11.9,16,18.7,15
2013/9/16 7:08,11.7,16,12,16,17,16
2013/9/16 7:09,11,16,11.6,16,12.4,16
2013/9/16 7:10,10.4,16,10.9,16,14.4,1
2013/9/16 7:11,10.3,16,10.4,16,22.9,16
2013/9/16 7:12,9.8,16,10.2,16,17.7,1
2013/9/16 7:13,9.2,16,9.5,16,15.2,15
2013/9/16 7:14,9.2,16,9.3,16,15.2,15
2013/9/16 7:15,8.7,16,9.2,16,15.1,15
2013/9/16 7:16,9,16,9,16,13.1,15
2013/9/16 7:17,8.8,15,9.1,16,15.7,16
2013/9/16 7:18,8.5,16,8.7,16,12.5,15
2013/9/16 7:19,9.1,16,9.1,16,22.3,15
2013/9/16 7:20,9.2,15,9.2,16,16.8,16
2013/9/16 7:21,9.3,15,9.4,16,30.1,15
2013/9/16 7:22,9.6,15,9.6,15,22.2,1
2013/9/16 7:23,9.9,15,10,15,18.3,16
2013/9/16 7:24,10,16,10,15,19.6,15
2013/9/16 7:25,10.3,16,10.3,16,19.2,15
2013/9/16 7:26,10.8,16,10.8,16,21.3,16
2013/9/16 7:27,11.3,16,11.3,16,23.8,15
2013/9/16 7:28,11.7,16,11.7,16,21.6,15
2013/9/16 7:29,11.7,16,11.8,16,21.8,16
2013/9/16 7:30,12,16,12,16,20.2,15
2013/9/16 7:31,11.9,16,12.2,16,21,16
2013/9/16 7:32,11.8,16,11.9,16,21.4,1
2013/9/16 7:33,11.8,16,11.9,16,20.7,15
2013/9/16 7:34,11.6,16,12,16,17,16
2013/9/16 7:35,11.9,16,12,16,22.3,16
2013/9/16 7:36,11.8,16,12,16,21.8,16
2013/9/16 7:37,11.2,16,11.7,16,13.8,1
2013/9/16 7:38,11,16,11.2,16,19.2,15
2013/9/16 7:39,11,16,11.2,16,22.3,1
2013/9/16 7:40,10.9,16,11,16,18,15
2013/9/16 7:41,10.7,16,10.9,16,20.1,16
2013/9/16 7:42,10.5,16,10.6,16,20.3,16
2013/9/16 7:43,10.3,16,10.5,16,20.2,14
2013/9/16 7:44,10.8,16,10.8,16,18.9,16
2013/9/16 7:45,10.7,16,10.9,16,24.4,15
2013/9/16 7:46,10.2,16,10.7,16,13.3,1
2013/9/16 7:47,10.2,16,10.2,16,18.7,16
2013/9/16 7:48,10.4,16,10.4,16,23.6,16
2013/9/16 7:49,10.2,16,10.4,16,16.3,16
2013/9/16 7:50,10.3,16,10.3,16,19.5,14
2013/9/16 7:51,10.4,16,10.6,16,23.5,15
2013/9/16 7:52,10.8,16,10.8,16,21.2,15
2013/9/16 7:53,10.8,16,10.8,16,17.2,15
2013/9/16 7:54,10.8,16,11,16,21.1,15
2013/9/16 7:55,10.5,16,10.9,16,15.9,16
2013/9/16 7:56,10.8,15,10.8,16,16.7,14
2013/9/16 7:57,11.1,15,11.1,15,18.5,16
2013/9/16 7:58,10.6,16,11.1,15,14,15
2013/9/16 7:59,10.7,15,10.7,15,18.7,15
2013/9/16 8:00,10.3,15,10.6,15,15,15
2013/9/16 8:01,10.5,16,10.5,15,20.2,16
2013/9/16 8:02,9.8,16,10.5,15,14.3,16
2013/9/16 8:03,9.8,15,10,15,21.9,16
2013/9/16 8:04,9.9,15,10,15,26.8,16
2013/9/16 8:05,10,16,10,15,16,16
2013/9/16 8:06,10.5,16,10.5,15,25.7,16
2013/9/16 8:07,10.4,16,10.4,15,14.3,15
2013/9/16 8:08,10.6,16,10.6,15,16.5,16
2013/9/16 8:09,10.1,16,10.5,15,16.2,16
2013/9/16 8:10,9.8,16,10.1,16,11.6,16
2013/9/16 8:11,9.6,16,9.8,16,17.2,15
2013/9/16 8:12,10.1,16,10.1,16,19.3,15
2013/9/16 8:13,10.1,16,10.1,16,18.4,15
2013/9/16 8:14,9.4,16,10,16,14,15
2013/9/16 8:15,9.5,16,9.5,16,17.2,16
2013/9/16 8:16,8.7,16,9.5,16,10.1,15
2013/9/16 8:17,8.3,16,8.7,16,14.3,16
2013/9/16 8:18,8.2,16,8.3,16,15.8,16
2013/9/16 8:19,8.7,15,8.8,16,24.3,15
2013/9/16 8:20,9.1,15,9.1,16,17.6,1
2013/9/16 8:21,8.9,15,9.1,16,18.5,16
2013/9/16 8:22,8.8,15,8.9,16,20.9,16
2013/9/16 8:23,9.3,16,9.3,16,21.5,16
2013/9/16 8:24,9.4,16,9.5,16,18.5,15
2013/9/16 8:25,9.4,16,9.6,16,19,16
2013/9/16 8:26,9.6,16,9.6,16,17.8,16
2013/9/16 8:27,9.8,16,9.8,16,18,1
2013/9/16 8:28,9.9,16,10,16,15.3,15
2013/9/16 8:29,9.9,16,10.1,16,15.6,16
2013/9/16 8:30,10.1,16,10.2,16,19.8,16
2013/9/16 8:31,10,16,10.2,16,12.2,16
2013/9/16 8:32,9.2,16,9.9,16,8.4,1
2013/9/16 8:33,8.5,16,9.1,16,14,16
2013/9/16 8:34,8.4,16,8.4,16,14.3,16
2013/9/16 8:35,8.6,16,8.6,16,20.3,16
2013/9/16 8:36,8.8,16,8.9,16,15.1,15
2013/9/16 8:37,8.5,16,8.8,16,10.6,14
2013/9/16 8:38,8,16,8.4,16,6,16
2013/9/16 8:39,7.5,16,8,16,11.9,1
2013/9/16 8:40,6.7,16,7.4,16,6,1
2013/9/16 8:41,6.5,16,6.6,16,9.7,15
2013/9/16 8:42,6.8,16,6.8,16,17.9,1
2013/9/16 8:43,6.8,16,6.9,16,11.5,16
2013/9/16 8:44,6.6,16,6.8,16,12.6,1
2013/9/16 8:45,6.1,16,6.5,16,14.7,16
2013/9/16 8:46,5.6,16,6.1,16,11,2
2013/9/16 8:47,5.8,16,5.8,16,9.8,2
2013/9/16 8:48,6.3,16,6.3,16,13,1
2013/9/16 8:49,6.2,16,6.3,16,9.1,15
2013/9/16 8:50,6.5,16,6.5,16,11.8,16
2013/9/16 8:51,6.7,16,6.7,16,14,14
2013/9/16 8:52,6.8,16,6.8,16,17.5,1
2013/9/16 8:53,6.9,16,6.9,16,16.2,16
2013/9/16 8:54,7,16,7,16,16.3,16
2013/9/16 8:55,7,16,7.1,16,13.4,16
2013/9/16 8:56,7.2,16,7.3,16,14.7,15
2013/9/16 8:57,7.6,16,7.6,16,14.3,16
2013/9/16 8:58,7.5,16,7.6,16,12.7,15
2013/9/16 8:59,7.8,16,7.8,16,14,15
2013/9/16 9:00,7.8,16,7.9,16,13,1
2013/9/16 9:01,7.5,16,7.8,16,9.5,1
2013/9/16 9:02,7.9,16,8,16,20.5,1
2013/9/16 9:03,8.1,16,8.2,16,18.9,16
2013/9/16 9:04,8.1,16,8.1,16,18.8,16
2013/9/16 9:05,8.3,16,8.3,16,17.7,1
2013/9/16 9:06,8.7,16,8.7,16,20.5,1
2013/9/16 9:07,8.9,16,8.9,16,21.5,16
2013/9/16 9:08,9,16,9.1,16,15.1,16
2013/9/16 9:09,9.2,16,9.2,16,20.7,16
2013/9/16 9:10,9.5,16,9.5,16,20.9,16
2013/9/16 9:11,10.2,16,10.3,16,21.4,15
2013/9/16 9:12,10.1,16,10.4,16,20.3,14
2013/9/16 9:13,10.1,16,10.1,16,21.8,16
2013/9/16 9:14,10,16,10.1,16,12.1,1
2013/9/16 9:15,10.3,16,10.3,16,19.3,15
2013/9/16 9:16,10.5,16,10.5,16,24.5,16
2013/9/16 9:17,10.5,16,10.6,16,18.8,1
2013/9/16 9:18,11.1,16,11.1,16,23,16
2013/9/16 9:19,11.1,16,11.4,16,19,1
2013/9/16 9:20,11.2,16,11.2,16,18.3,15
2013/9/16 9:21,10.9,16,11.2,16,18.7,15
2013/9/16 9:22,11,16,11.1,16,19,1
2013/9/16 9:23,11.3,16,11.3,16,21.5,16
2013/9/16 9:24,11.6,16,11.6,16,19.7,16
2013/9/16 9:25,11.2,16,11.8,16,18.4,16
2013/9/16 9:26,10.4,16,11.2,16,8.5,16
2013/9/16 9:27,10,16,10.2,16,12.1,15
2013/9/16 9:28,9.5,16,9.9,16,20.1,15
2013/9/16 9:29,9.3,16,9.5,16,17.1,16
2013/9/16 9:30,9.6,16,9.6,16,23.2,15
2013/9/16 9:31,9.7,16,9.9,16,19.7,15
2013/9/16 9:32,9.4,16,9.8,16,15,14
2013/9/16 9:33,9.1,16,9.5,16,18.3,1
2013/9/16 9:34,9,16,9.1,16,14.3,1
2013/9/16 9:35,9,16,9,16,15.7,1
2013/9/16 9:36,9.5,16,9.5,16,14.4,1
2013/9/16 9:37,9.4,16,9.6,16,15.6,15
2013/9/16 9:38,8.8,16,9.3,16,14.1,1
2013/9/16 9:39,9.5,16,9.5,16,26,16
2013/9/16 9:40,9.1,16,9.5,16,14.2,15
2013/9/16 9:41,8.9,16,9.1,16,17.2,16
2013/9/16 9:42,8.3,16,8.9,16,9.8,15
2013/9/16 9:43,8.2,16,8.4,16,16.6,15
2013/9/16 9:44,7.6,16,8.2,16,10.9,15
2013/9/16 9:45,7.4,16,7.5,16,14,11
2013/9/16 9:46,7.2,15,7.5,16,12.2,14
2013/9/16 9:47,7.5,16,7.5,16,15.4,1
2013/9/16 9:48,7.7,16,7.8,16,14,15
2013/9/16 9:49,6.8,16,7.7,16,14.9,15
2013/9/16 9:50,7.1,16,7.3,16,19.4,1
2013/9/16 9:51,7.2,16,7.2,16,13.9,15
2013/9/16 9:52,7.6,16,7.6,16,14.7,1
2013/9/16 9:53,7.4,15,7.5,16,13.8,12
2013/9/16 9:54,8.1,15,8.1,15,18.4,11
2013/9/16 9:55,7.8,15,8.1,15,9.1,8
2013/9/16 9:56,7.7,16,7.8,15,13.3,15
2013/9/16 9:57,7.1,15,7.7,15,10.1,14
2013/9/16 9:58,6.8,15,7.1,15,6.5,3
2013/9/16 9:59,7.1,15,7.1,15,16,14
2013/9/16 10:00,6.2,15,7,15,13.6,14
2013/9/16 10:01,5.9,15,6.3,15,11.3,1
2013/9/16 10:02,5.8,16,5.9,15,13.9,1
2013/9/16 10:03,6.4,16,6.5,15,19,16
2013/9/16 10:04,6.1,16,6.4,15,12.7,1
2013/9/16 10:05,6.7,16,6.7,15,16.7,16
2013/9/16 10:06,6.8,16,6.8,16,19.6,16
2013/9/16 10:07,7.1,16,7.1,15,17.7,15
2013/9/16 10:08,7.1,16,7.1,15,7.2,12
2013/9/16 10:09,6.5,16,7.1,16,6.5,9
2013/9/16 10:10,6.4,1,6.5,16,5.8,2
2013/9/16 10:11,6.2,16,6.4,16,5.5,1
2013/9/16 10:12,5.9,16,6.2,16,9.8,12
2013/9/16 10:13,5.1,16,5.8,16,7.5,12
2013/9/16 10:14,4.8,15,5.1,16,7.7,9
2013/9/16 10:15,4.3,15,4.7,16,15.3,16
2013/9/16 10:16,4.1,16,4.4,16,13.1,1
2013/9/16 10:17,4,16,4.2,16,11.5,15
2013/9/16 10:18,3.9,16,4,16,4.9,15
2013/9/16 10:19,4.4,16,4.4,16,13.5,15
2013/9/16 10:20,4.5,15,4.5,1,9.7,13
2013/9/16 10:21,4.8,15,4.8,16,12.2,1
2013/9/16 10:22,5,16,5,16,11.9,16
2013/9/16 10:23,5.1,16,5.1,16,8.6,16
2013/9/16 10:24,4.9,16,5.1,16,6,15
2013/9/16 10:25,5,16,5.1,16,10.5,1
2013/9/16 10:26,4.7,16,4.9,16,9,1
2013/9/16 10:27,4.4,16,4.6,16,8.2,14
2013/9/16 10:28,4.4,16,4.5,16,3.5,3
2013/9/16 10:29,4,16,4.4,16,5.8,2
2013/9/16 10:30,4,16,4,16,9.8,4
2013/9/16 10:31,3.6,1,4,16,6.2,1